Weather History for LRCV - January, 2013

Change the Weather History Date:

Tuesday, January 22, 2013

  Actual Average Record
Temperature  
Mean Temperature 46 °F -  
Max Temperature 56 °F 39 °F - ()
Min Temperature 36 °F 25 °F - ()
Degree Days  
Heating Degree Days 19    
Moisture  
Dew Point 40 °F    
Average Humidity 84    
Maximum Humidity 100    
Minimum Humidity 44    
Precipitation  
Precipitation 0.00 in 0.05 in - ()
Sea Level Pressure  
Sea Level Pressure 29.56 in    
Wind  
Wind Speed 6 mph ()    
Max Wind Speed 14 mph    
Max Gust Speed -    
Visibility 3.6 miles    
Events Rain    
T = Trace of Precipitation, MM = Missing Value Source: Averaged Metar Reports

Daily Weather History Graph

Daily Weather History Graph

Search for Another Location

Airport or City:

Trip Planner

Search our weather history database for the weather conditions in past years. The results will help you decide how hot, cold, wet, or windy it might be!

Date:

Astronomy

Jan. 22, 2013 Rise Set
Actual Time 7:52 AM EET 5:20 PM EET
Civil Twilight 7:20 AM EET 5:52 PM EET
Nautical Twilight 6:45 AM EET 6:27 PM EET
Astronomical Twilight 6:10 AM EET 7:01 PM EET
Moon 1:27 PM EET (1/22) 3:58 AM EET (1/22)
Length of Visible Light 10h 31m
Length of Day
9h 28m
Waxing Gibbous, 80% of the Moon is Illuminated
Jan 22
Waxing Gibbous
Jan 27
Full
Feb 3
Last Quarter
Feb 10
New
Feb 17
First Quarter

Hourly Weather History & Observations

Time (EET) Temp. Windchill Dew Point Humidity Pressure Visibility Wind Dir Wind Speed Gust Speed Precip Events Conditions
12:00 AM 42 °F - 41 °F 93% 29.54 in 6 mi East 11.2 mph - -   Scattered Clouds
12:00 AM 39.2 °F 35.9 °F 37.4 °F 93% 29.53 in 3.7 mi ENE 4.6 mph - N/A   Mostly Cloudy
1:00 AM 40 °F - 40 °F 100% 29.55 in 6 mi East 8.9 mph - -   Scattered Clouds
1:00 AM 39.2 °F 34.2 °F 37.4 °F 93% 29.50 in 3.1 mi ENE 6.9 mph - N/A   Mostly Cloudy
2:00 AM 39 °F - 39 °F 100% 29.53 in 6 mi ENE 6.7 mph - -   Scattered Clouds
2:00 AM 39.2 °F 34.2 °F 37.4 °F 93% 29.50 in - East 6.9 mph - N/A   Mostly Cloudy
3:00 AM 40 °F - 40 °F 100% 29.53 in 2 mi NE 2.2 mph - -   Mist
3:00 AM 37.4 °F 33.8 °F 37.4 °F 100% 29.50 in 1.4 mi NW 4.6 mph - N/A   Mostly Cloudy
4:00 AM 39 °F - 39 °F 98% 29.53 in 2 mi NNW 4.5 mph - -   Mist
4:00 AM 39.2 °F 34.2 °F 37.4 °F 93% 29.47 in 2.2 mi NNW 6.9 mph - N/A   Mostly Cloudy
4:30 AM 39.2 °F 34.2 °F 39.2 °F 100% 29.47 in - NNE 6.9 mph - N/A   Mostly Cloudy
5:00 AM 40 °F - 40 °F 98% 29.52 in 2 mi NNE 8.9 mph - -   Mist
5:00 AM 39.2 °F 35.9 °F 39.2 °F 100% 29.50 in 3.7 mi North 4.6 mph - N/A Rain Light Rain
5:30 AM 37.4 °F 33.8 °F 37.4 °F 100% 29.50 in 1.1 mi West 4.6 mph - N/A Rain Light Rain
6:00 AM 37 °F - 37 °F 100% 29.55 in 2 mi WNW 4.5 mph - - Rain Light Rain
6:00 AM 37.4 °F 32.1 °F 37.4 °F 100% 29.50 in 1.6 mi NNW 6.9 mph - N/A Rain Light Rain Showers
6:30 AM 39.2 °F 34.2 °F 39.2 °F 100% 29.50 in - ENE 6.9 mph - N/A Rain Light Rain Showers
7:00 AM 40 °F - 40 °F 99% 29.52 in 6 mi NE 6.7 mph - - Rain Light Rain
7:00 AM 39.2 °F 34.2 °F 37.4 °F 93% 29.50 in - ENE 6.9 mph - N/A   Mostly Cloudy
7:30 AM 39.2 °F 35.9 °F 37.4 °F 93% 29.50 in - West 4.6 mph - N/A   Mostly Cloudy
8:00 AM 39 °F - 39 °F 100% 29.54 in 2 mi WNW 2.2 mph - -   Mist
8:00 AM 37.4 °F 33.8 °F 37.4 °F 100% 29.50 in 1.9 mi NW 4.6 mph - N/A   Mist
8:30 AM 39.2 °F - 39.2 °F 100% 29.53 in 3.7 mi Calm Calm - N/A   Unknown
9:00 AM 41 °F - 41 °F 100% 29.55 in 1 mi NE 4.5 mph - -   Mist
9:00 AM 39.2 °F - 37.4 °F 93% 29.53 in 3.1 mi NNW 2.3 mph - N/A   Mist
9:30 AM 42.8 °F - 42.8 °F 100% 29.53 in 4.3 mi Calm Calm - N/A   Unknown
10:00 AM 44 °F - 43 °F 93% 29.57 in 1 mi South 2.2 mph - -   Mist
10:00 AM 46.4 °F - 44.6 °F 93% 29.56 in - Variable 2.3 mph - N/A   Clear
10:30 AM 48.2 °F - 42.8 °F 82% 29.56 in 5.6 mi Variable 2.3 mph - N/A   Unknown
11:00 AM 47 °F - 42 °F 75% 29.58 in 1 mi SSW 2.2 mph - -   Mist
11:00 AM 44.6 °F 42.2 °F 41.0 °F 87% 29.56 in 3.7 mi SSW 4.6 mph - N/A   Unknown
11:30 AM 46.4 °F 44.3 °F 42.8 °F 87% 29.56 in 3.7 mi WSW 4.6 mph - N/A   Unknown
12:00 PM 46 °F - 43 °F 85% 29.59 in 1 mi SW 4.5 mph - -   Mist
12:00 PM 48.2 °F - 42.8 °F 82% 29.56 in 5.0 mi WSW 9.2 mph - N/A   Unknown
12:30 PM 50.0 °F - 42.8 °F 76% 29.56 in - WSW 9.2 mph - N/A   Clear
1:00 PM 51 °F - 41 °F 60% 29.57 in 1 mi WSW 8.9 mph - -   Mist
1:00 PM 51.8 °F - 41.0 °F 67% 29.56 in - WSW 13.8 mph - N/A   Clear
1:30 PM 53.6 °F - 42.8 °F 67% 29.56 in - WSW 13.8 mph - N/A   Clear
2:00 PM 53 °F - 41 °F 54% 29.56 in 1 mi WSW 13.4 mph - -   Mist
2:00 PM 51.8 °F - 41.0 °F 67% 29.56 in - WSW 11.5 mph - N/A   Clear
2:30 PM 53.6 °F - 41.0 °F 62% 29.53 in - West 11.5 mph - N/A   Clear
3:00 PM 55 °F - 41 °F 48% 29.55 in 2 mi West 8.9 mph - -   Mist
3:00 PM 53.6 °F - 41.0 °F 62% 29.53 in - West 13.8 mph - N/A   Clear
3:30 PM 53.6 °F - 41.0 °F 62% 29.56 in - West 13.8 mph - N/A   Clear
4:00 PM 55 °F - 39 °F 44% 29.56 in 2 mi West 8.9 mph - -   Mist
4:00 PM 51.8 °F - 39.2 °F 62% 29.56 in - West 11.5 mph - N/A   Clear
4:30 PM 50.0 °F - 39.2 °F 66% 29.56 in - West 9.2 mph - N/A   Clear
5:00 PM 51 °F - 39 °F 53% 29.58 in 6 mi West 8.9 mph - -   Scattered Clouds
5:00 PM 50.0 °F - 39.2 °F 66% 29.56 in - West 9.2 mph - N/A   Clear
5:30 PM 48.2 °F - 39.2 °F 71% 29.59 in - WSW 6.9 mph - N/A   Clear
6:00 PM 49 °F - 39 °F 59% 29.60 in 6 mi West 6.7 mph - -   Overcast
6:00 PM 48.2 °F - 39.2 °F 71% 29.59 in - West 6.9 mph - N/A   Clear
6:30 PM 46.4 °F 44.3 °F 39.2 °F 76% 29.59 in 6.2 mi West 4.6 mph - N/A   Mostly Cloudy
7:00 PM 47 °F - 40 °F 67% 29.61 in 6 mi WNW 4.5 mph - -   Scattered Clouds
7:00 PM 46.4 °F 42.9 °F 39.2 °F 76% 29.59 in 6.2 mi SSW 6.9 mph - N/A   Scattered Clouds
7:30 PM 44.6 °F 39.7 °F 39.2 °F 81% 29.62 in 6.2 mi South 9.2 mph - N/A   Mostly Cloudy
8:00 PM 44 °F - 39 °F 76% 29.64 in 6 mi SSE 6.7 mph - -   Partly Cloudy
8:00 PM 42.8 °F 37.5 °F 41.0 °F 93% 29.62 in 3.7 mi South 9.2 mph - N/A   Mostly Cloudy
8:30 PM 42.8 °F 38.6 °F 41.0 °F 93% 29.62 in 3.1 mi South 6.9 mph - N/A   Mostly Cloudy
9:00 PM 42 °F - 42 °F 99% 29.64 in 6 mi South 4.5 mph - -   Partly Cloudy
9:00 PM 42.8 °F 38.6 °F 41.0 °F 93% 29.62 in 3.7 mi SSW 6.9 mph - N/A   Mostly Cloudy
9:30 PM 42.8 °F 40.1 °F 41.0 °F 93% 29.62 in 3.7 mi SSW 4.6 mph - N/A Rain Light Rain Showers
10:00 PM 43 °F - 42 °F 96% 29.65 in 6 mi South 2.2 mph - - Rain Light Rain
10:00 PM 42.8 °F 40.1 °F 41.0 °F 93% 29.62 in 3.7 mi SW 4.6 mph - N/A   Mostly Cloudy
10:30 PM 42.8 °F 40.1 °F 39.2 °F 87% 29.62 in 3.1 mi West 4.6 mph - N/A   Overcast
11:00 PM 43 °F - 42 °F 94% 29.66 in 6 mi West 4.5 mph - -   Partly Cloudy
11:00 PM 44.6 °F 40.7 °F 41.0 °F 87% 29.65 in 4.3 mi WSW 6.9 mph - N/A   Mostly Cloudy